Location: Unspecified
(43.8044°N, 11.0278°E)
Time: 07:29:01
(UTC+02:00)

Cosmos 2058 - Visible Passes

Search period start: 01 June 2016 00:00
Search period end: 11 June 2016 00:00
Orbit: 564 x 587 km, 82.5° (Epoch: 31 May)

Date Brightness Start Highest point End Pass type
(mag) Time Alt. Az. Time Alt. Az. Time Alt. Az.
01 Jun 3.4 01:40:36 50° E 01:40:36 50° E 01:44:33 10° NNE visible
01 Jun 5.0 03:16:50 13° W 03:17:47 14° WNW 03:20:04 10° NW visible
02 Jun 3.0 01:44:14 69° E 01:44:14 69° E 01:48:17 10° NNE visible
02 Jun 5.3 03:20:31 10° W 03:21:36 11° WNW 03:22:41 10° NW visible
03 Jun 2.8 01:47:51 87° NW 01:47:51 87° NW 01:51:59 10° N visible
04 Jun 5.4 00:15:14 10° E 00:15:14 10° E 00:15:57 10° ENE visible
04 Jun 3.0 01:51:29 65° W 01:51:29 65° W 01:55:37 10° N visible
05 Jun 5.1 00:18:50 14° E 00:18:50 14° E 00:20:52 10° NE visible
05 Jun 3.4 01:55:04 47° W 01:55:11 47° WNW 01:59:12 10° N visible
06 Jun 4.8 00:22:25 19° E 00:22:25 19° E 00:25:07 10° NE visible
06 Jun 3.9 01:58:40 35° W 01:58:53 35° WNW 02:02:44 10° N visible
07 Jun 4.4 00:26:00 24° E 00:26:00 24° E 00:29:09 10° NE visible
07 Jun 4.3 02:02:14 26° W 02:02:37 27° WNW 02:06:11 10° NNW visible
08 Jun 4.0 00:29:33 32° E 00:29:33 32° E 00:33:04 10° NNE visible
08 Jun 4.7 02:05:48 20° W 02:06:23 21° WNW 02:09:33 10° NNW visible
09 Jun 3.5 00:33:06 43° E 00:33:06 43° E 00:36:54 10° NNE visible
09 Jun 5.0 02:09:20 15° W 02:10:10 16° WNW 02:12:46 10° NNW visible
10 Jun 3.0 00:36:38 59° E 00:36:38 59° E 00:40:40 10° NNE visible
10 Jun 5.3 02:12:52 11° W 02:13:57 12° WNW 02:15:42 10° NW visible
